Location: Lahitte
(43.6596°N, 0.6805°E)
Time: 20:54:54
(UTC+00:00)

Nadezhda 4 Rocket - Pass Details

Date: 15 May 2026
Orbit: 948 x 992 km, 82.9° (Epoch: 8 June)

Event Time Altitude Azimuth Distance (km) Brightness Sun altitude
Rises 22:09:06 0° 348° (NNW) 3,630 8.3 -22.9°
Reaches altitude 10° 22:11:38 10° 344° (NNW) 2,682 7.4 -23.1°
Maximum altitude 22:17:35 56° 268° (W) 1,121 4.4 -23.5°
Enters shadow 22:20:01 35° 208° (SSW) 1,502 4.7 -23.7°
